Regional Weather Roundup
Issued by NWS

Home | Current Version | Previous Version | Graphics & Text | Print | Product List | Glossary On
Versions: 1 2 3 4 5 6 7 8 9 10 11 12 13 14 15 16 17 18 19 20 21 22 23 24 25 26 27 28 29 30 31 32 33 34 35 36 37 38 39 40 41 42 43 44 45 46 47 48 49 50
000
ASUS43 KBIS 280402
RWRND

NORTH DAKOTA REGIONAL WEATHER ROUNDUP
NATIONAL WEATHER SERVICE BISMARCK ND
1100 PM CDT THU APR 27 2017

NOTE: "FAIR" INDICATES FEW OR NO CLOUDS BELOW 12,000 FEET WITH NO
SIGNIFICANT WEATHER AND/OR OBSTRUCTIONS TO VISIBILITY.


NDZ001>003-009>011-017-280500-
NORTHWEST NORTH DAKOTA

CITY           SKY/WX    TMP DP  RH WIND       PRES   REMARKS
WILLISTON      FAIR      40  16  37 E8        29.83R
MINOT          FAIR      36  26  67 NE7       29.84R
MINOT AFB      CLEAR     40  26  56 NE9       29.84R
$$

NDZ018>021-031>035-040>046-280500-
SOUTHWEST NORTH DAKOTA

CITY           SKY/WX    TMP DP  RH WIND       PRES   REMARKS
BISMARCK       FAIR      39  25  57 NE8       29.82R
DICKINSON      FAIR      34  17  50 NE7       29.78R
GARRISON         N/A     35  23  61 NE6       29.82R
HETTINGER ARPT CLEAR     33  24  69 NE8       29.79R
$$

NDZ004>008-012>016-024-026-027-054-280500-
NORTHEAST NORTH DAKOTA

CITY           SKY/WX    TMP DP  RH WIND       PRES   REMARKS
GRAND FORKS    MOCLDY    35  29  78 N7        29.81R
GRND FRKS AFB  PTCLDY    31  28  87 N6        29.82R
DEVILS LAKE    CLOUDY    39  29  67 NE7       29.84R
$$

NDZ022-023-025-028>030-036>039-047>053-280500-
SOUTHEAST NORTH DAKOTA

CITY           SKY/WX    TMP DP  RH WIND       PRES   REMARKS
FARGO          CLOUDY    37  30  75 NW6       29.79R
JAMESTOWN      MOCLDY    40  29  64 N10       29.81R
$$




USA.gov is the U.S. government's official web portal to all federal, state and local government web resources and services.